| time (UTC) | temp C | wind direction | speed KPH | gust KPH | rain 1hr cm | rain 24hr cm | rain mn cm | humidity % | barometer mb |
| 20260504204845 | 25 | 173 | 4.8 | 4.8 | 0.00 | 0.00 | 0.00 | 33 | 1009.7 |
| 20260504204343 | 25 | 131 | 4.8 | 9.7 | 0.00 | 0.00 | 0.00 | 35 | 1010.0 |
| 20260504203842 | 24 | 156 | 1.6 | 1.6 | 0.00 | 0.00 | 0.00 | 35 | 1009.8 |
| 20260504203338 | 24 | 130 | 4.8 | 9.7 | 0.00 | 0.00 | 0.00 | 34 | 1010.2 |
| 20260504202834 | 24 | 155 | 1.6 | 3.2 | 0.00 | 0.00 | 0.00 | 35 | 1010.2 |
| 20260504202332 | 24 | 155 | 1.6 | 1.6 | 0.00 | 0.00 | 0.00 | 37 | 1010.0 |
| 20260504201828 | 24 | 183 | 3.2 | 3.2 | 0.00 | 0.00 | 0.00 | 36 | 1010.2 |
| 20260504201326 | 25 | 295 | 4.8 | 8.0 | 0.00 | 0.00 | 0.00 | 35 | 1010.1 |
| 20260504200823 | 25 | 167 | 1.6 | 1.6 | 0.00 | 0.00 | 0.00 | 37 | 1010.2 |
| 20260504200319 | 25 | 178 | 1.6 | 1.6 | 0.00 | 0.00 | 0.00 | 34 | 1010.7 |
| 20260504195815 | 25 | 283 | 6.4 | 9.7 | 0.00 | 0.00 | 0.00 | 34 | 1010.5 |
| 20260504195311 | 25 | 189 | 3.2 | 4.8 | 0.00 | 0.00 | 0.00 | 34 | 1010.4 |
| 20260504194808 | 23 | 144 | 1.6 | 3.2 | 0.00 | 0.00 | 0.00 | 36 | 1010.8 |
| 20260504194305 | 24 | 167 | 1.6 | 1.6 | 0.00 | 0.00 | 0.00 | 35 | 1010.8 |
| 20260504193801 | 24 | 179 | 3.2 | 3.2 | 0.00 | 0.00 | 0.00 | 36 | 1010.7 |
| 20260504193258 | 24 | 176 | 1.6 | 1.6 | 0.00 | 0.00 | 0.00 | 36 | 1010.8 |
| 20260504192757 | 24 | 214 | 4.8 | 4.8 | 0.00 | 0.00 | 0.00 | 36 | 1011.0 |
| 20260504192255 | 24 | 200 | 1.6 | 1.6 | 0.00 | 0.00 | 0.00 | 40 | 1011.3 |
| 20260504191753 | 24 | 167 | 0.0 | 1.6 | 0.00 | 0.00 | 0.00 | 35 | 1011.1 |
| 20260504191250 | 23 | 149 | 6.4 | 9.7 | 0.00 | 0.00 | 0.00 | 35 | 1011.2 |
| 20260504190745 | 23 | 131 | 12.9 | 14.5 | 0.00 | 0.00 | 0.00 | 37 | 1011.3 |
| 20260504190242 | 23 | 205 | 4.8 | 8.0 | 0.00 | 0.00 | 0.00 | 38 | 1011.4 |
| 20260504185738 | 23 | 158 | 3.2 | 8.0 | 0.00 | 0.00 | 0.00 | 35 | 1011.7 |
| 20260504185235 | 23 | 212 | 1.6 | 3.2 | 0.00 | 0.00 | 0.00 | 37 | 1011.7 |
| 20260504184731 | 23 | 160 | 3.2 | 3.2 | 0.00 | 0.00 | 0.00 | 36 | 1011.6 |
| 20260504184227 | 23 | 207 | 1.6 | 3.2 | 0.00 | 0.00 | 0.00 | 41 | 1011.7 |
| 20260504183723 | 23 | 168 | 1.6 | 1.6 | 0.00 | 0.00 | 0.00 | 38 | 1011.8 |
| 20260504183220 | 22 | 199 | 4.8 | 4.8 | 0.00 | 0.00 | 0.00 | 36 | 1012.0 |
| 20260504182718 | 22 | 190 | 4.8 | 8.0 | 0.00 | 0.00 | 0.00 | 35 | 1012.2 |
| 20260504182215 | 22 | 205 | 3.2 | 4.8 | 0.00 | 0.00 | 0.00 | 38 | 1011.9 |
| 20260504181713 | 22 | 175 | 4.8 | 4.8 | 0.00 | 0.00 | 0.00 | 38 | 1012.4 |
| 20260504181210 | 22 | 142 | 4.8 | 8.0 | 0.00 | 0.00 | 0.00 | 36 | 1012.3 |
| 20260504180709 | 22 | 140 | 3.2 | 4.8 | 0.00 | 0.00 | 0.00 | 38 | 1012.2 |
| 20260504180207 | 22 | 224 | 9.7 | 12.9 | 0.00 | 0.00 | 0.00 | 38 | 1012.5 |
| 20260504175704 | 22 | 196 | 3.2 | 4.8 | 0.00 | 0.00 | 0.00 | 38 | 1012.4 |
| 20260504175201 | 22 | 244 | 6.4 | 9.7 | 0.00 | 0.00 | 0.00 | 37 | 1012.2 |
| 20260504174659 | 21 | 180 | 1.6 | 3.2 | 0.00 | 0.00 | 0.00 | 39 | 1012.4 |
| 20260504174156 | 21 | 183 | 0.0 | 0.0 | 0.00 | 0.00 | 0.00 | 39 | 1012.5 |
| 20260504173653 | 22 | 186 | 1.6 | 1.6 | 0.00 | 0.00 | 0.00 | 38 | 1012.7 |
| 20260504173150 | 21 | 334 | 4.8 | 8.0 | 0.00 | 0.00 | 0.00 | 42 | 1012.8 |
| 20260504172647 | 21 | 294 | 4.8 | 8.0 | 0.00 | 0.00 | 0.00 | 41 | 1012.7 |
| 20260504172143 | 21 | 146 | 9.7 | 11.3 | 0.00 | 0.00 | 0.00 | 39 | 1012.8 |
| 20260504171639 | 21 | 212 | 6.4 | 9.7 | 0.00 | 0.00 | 0.00 | 38 | 1012.8 |
| 20260504171137 | 20 | 175 | 1.6 | 3.2 | 0.00 | 0.00 | 0.00 | 40 | 1012.8 |
| 20260504170633 | 21 | 158 | 4.8 | 8.0 | 0.00 | 0.00 | 0.00 | 39 | 1013.1 |
| 20260504170131 | 21 | 204 | 4.8 | 4.8 | 0.00 | 0.00 | 0.00 | 40 | 1013.2 |
| 20260504151016 | 18 | 215 | 4.8 | 8.0 | 0.00 | 0.00 | 0.00 | 41 | 1014.5 |
| 20260504150514 | 18 | 197 | 3.2 | 3.2 | 0.00 | 0.00 | 0.00 | 44 | 1014.2 |
| 20260504140940 | 16 | 232 | 6.4 | 8.0 | 0.00 | 0.00 | 0.00 | 45 | 1014.3 |
| 20260504140436 | 16 | 119 | 6.4 | 8.0 | 0.00 | 0.00 | 0.00 | 45 | 1014.3 |
| 20260504130401 | 12 | 155 | 3.2 | 3.2 | 0.00 | 0.00 | 0.00 | 55 | 1014.7 |
| 20260504110248 | 9 | 151 | 4.8 | 4.8 | 0.00 | 0.00 | 0.00 | 66 | 1015.4 |
| 20260504100211 | 8 | 160 | 0.0 | 0.0 | 0.00 | 0.00 | 0.00 | 69 | 1015.0 |
| 20260504090134 | 10 | 162 | 0.0 | 0.0 | 0.00 | 0.00 | 0.00 | 65 | 1015.2 |
| 20260504081604 | 10 | 157 | 1.6 | 1.6 | 0.00 | 0.00 | 0.00 | 63 | 1015.3 |
| 20260504081100 | 10 | 161 | 1.6 | 1.6 | 0.00 | 0.00 | 0.00 | 64 | 1015.1 |
| 20260504080557 | 10 | 159 | 3.2 | 3.2 | 0.00 | 0.00 | 0.00 | 65 | 1015.2 |
| 20260504050410 | 7 | 167 | 0.0 | 0.0 | 0.00 | 0.00 | 0.00 | 70 | 1016.0 |
| 20260504045907 | 7 | 167 | 0.0 | 0.0 | 0.00 | 0.00 | 0.00 | 70 | 1015.9 |
| 20260504045402 | 7 | 167 | 0.0 | 0.0 | 0.00 | 0.00 | 0.00 | 70 | 1016.2 |
| 20260504044859 | 6 | 167 | 0.0 | 0.0 | 0.00 | 0.00 | 0.00 | 69 | 1016.2 |
| 20260504044356 | 7 | 167 | 0.0 | 0.0 | 0.00 | 0.00 | 0.00 | 70 | 1015.9 |
| 20260504043854 | 6 | 167 | 0.0 | 0.0 | 0.00 | 0.00 | 0.00 | 69 | 1016.1 |
| 20260504043350 | 6 | 167 | 0.0 | 0.0 | 0.00 | 0.00 | 0.00 | 70 | 1016.0 |
| 20260504042848 | 6 | 167 | 0.0 | 0.0 | 0.00 | 0.00 | 0.00 | 70 | 1015.8 |
| 20260504042344 | 6 | 167 | 0.0 | 0.0 | 0.00 | 0.00 | 0.00 | 70 | 1016.1 |
| 20260504041840 | 6 | 167 | 0.0 | 0.0 | 0.00 | 0.00 | 0.00 | 71 | 1015.7 |
| 20260504041337 | 6 | 168 | 0.0 | 0.0 | 0.00 | 0.00 | 0.00 | 70 | 1015.9 |
| 20260504040833 | 6 | 168 | 0.0 | 0.0 | 0.00 | 0.00 | 0.00 | 70 | 1015.7 |
| 20260504040331 | 6 | 167 | 0.0 | 0.0 | 0.00 | 0.00 | 0.00 | 70 | 1015.8 |
| 20260504035826 | 6 | 168 | 0.0 | 0.0 | 0.00 | 0.00 | 0.00 | 70 | 1015.9 |
| 20260504035325 | 6 | 168 | 0.0 | 0.0 | 0.00 | 0.00 | 0.00 | 70 | 1016.1 |
| 20260504034821 | 6 | 168 | 0.0 | 0.0 | 0.00 | 0.00 | 0.00 | 70 | 1016.1 |
| 20260504034319 | 7 | 168 | 0.0 | 0.0 | 0.00 | 0.00 | 0.00 | 70 | 1016.0 |
| 20260504033816 | 6 | 166 | 0.0 | 0.0 | 0.00 | 0.00 | 0.00 | 69 | 1015.9 |
| 20260504033314 | 6 | 166 | 0.0 | 0.0 | 0.00 | 0.00 | 0.00 | 69 | 1016.1 |
| 20260504032810 | 6 | 166 | 0.0 | 0.0 | 0.00 | 0.00 | 0.00 | 70 | 1015.9 |
| 20260504032307 | 6 | 166 | 0.0 | 0.0 | 0.00 | 0.00 | 0.00 | 70 | 1015.8 |
| 20260504031804 | 7 | 166 | 0.0 | 0.0 | 0.00 | 0.00 | 0.00 | 70 | 1015.8 |
| 20260504031301 | 7 | 166 | 0.0 | 0.0 | 0.00 | 0.00 | 0.00 | 70 | 1015.5 |
| 20260504030757 | 7 | 166 | 0.0 | 0.0 | 0.00 | 0.00 | 0.00 | 69 | 1015.7 |
| 20260504030254 | 7 | 166 | 0.0 | 0.0 | 0.00 | 0.00 | 0.00 | 69 | 1015.6 |
| 20260504025750 | 7 | 166 | 0.0 | 0.0 | 0.00 | 0.00 | 0.00 | 69 | 1015.9 |
| 20260504025248 | 7 | 166 | 0.0 | 0.0 | 0.00 | 0.00 | 0.00 | 69 | 1015.7 |
| 20260504024744 | 7 | 166 | 0.0 | 0.0 | 0.00 | 0.00 | 0.00 | 69 | 1015.6 |
| 20260504024241 | 7 | 166 | 0.0 | 0.0 | 0.00 | 0.00 | 0.00 | 69 | 1015.6 |
| 20260504023738 | 7 | 166 | 0.0 | 0.0 | 0.00 | 0.00 | 0.00 | 67 | 1015.5 |
| 20260504023234 | 7 | 165 | 0.0 | 0.0 | 0.00 | 0.00 | 0.00 | 67 | 1015.7 |
| 20260504022730 | 8 | 165 | 0.0 | 0.0 | 0.00 | 0.00 | 0.00 | 66 | 1015.5 |
| 20260504022226 | 8 | 165 | 0.0 | 0.0 | 0.00 | 0.00 | 0.00 | 66 | 1015.6 |
| 20260504021724 | 8 | 165 | 0.0 | 0.0 | 0.00 | 0.00 | 0.00 | 66 | 1015.5 |
| 20260504021221 | 8 | 164 | 0.0 | 0.0 | 0.00 | 0.00 | 0.00 | 66 | 1015.4 |
| 20260504020718 | 8 | 164 | 0.0 | 0.0 | 0.00 | 0.00 | 0.00 | 65 | 1015.4 |
| 20260504020214 | 8 | 162 | 0.0 | 0.0 | 0.00 | 0.00 | 0.00 | 63 | 1015.3 |
| 20260504015711 | 8 | 162 | 0.0 | 0.0 | 0.00 | 0.00 | 0.00 | 62 | 1015.3 |
| 20260504015207 | 9 | 162 | 0.0 | 0.0 | 0.00 | 0.00 | 0.00 | 59 | 1015.2 |
| 20260504014703 | 9 | 161 | 0.0 | 0.0 | 0.00 | 0.00 | 0.00 | 59 | 1015.4 |
| 20260504014200 | 9 | 169 | 0.0 | 0.0 | 0.00 | 0.00 | 0.00 | 60 | 1015.2 |
| 20260504013658 | 9 | 168 | 0.0 | 0.0 | 0.00 | 0.00 | 0.00 | 57 | 1015.1 |
| 20260504013154 | 8 | 169 | 0.0 | 0.0 | 0.00 | 0.00 | 0.00 | 59 | 1014.9 |
| 20260504012651 | 9 | 169 | 0.0 | 0.0 | 0.00 | 0.00 | 0.00 | 60 | 1014.9 |
| 20260504012149 | 9 | 169 | 0.0 | 0.0 | 0.00 | 0.00 | 0.00 | 59 | 1014.9 |
| 20260504011646 | 8 | 169 | 0.0 | 0.0 | 0.00 | 0.00 | 0.00 | 58 | 1015.0 |
| 20260504011142 | 9 | 169 | 0.0 | 0.0 | 0.00 | 0.00 | 0.00 | 59 | 1014.9 |
| 20260504010638 | 9 | 169 | 0.0 | 0.0 | 0.00 | 0.00 | 0.00 | 55 | 1014.7 |
| 20260504010134 | 10 | 169 | 0.0 | 0.0 | 0.00 | 0.00 | 0.00 | 55 | 1014.9 |
| 20260504005631 | 10 | 169 | 0.0 | 0.0 | 0.00 | 0.00 | 0.00 | 54 | 1015.0 |
| 20260504005128 | 10 | 169 | 0.0 | 0.0 | 0.00 | 0.00 | 0.00 | 56 | 1014.9 |
| 20260504004626 | 10 | 169 | 0.0 | 0.0 | 0.00 | 0.00 | 0.00 | 52 | 1014.9 |
| 20260504004123 | 10 | 169 | 0.0 | 0.0 | 0.00 | 0.00 | 0.00 | 52 | 1014.8 |
| 20260504003619 | 10 | 169 | 0.0 | 0.0 | 0.00 | 0.00 | 0.00 | 52 | 1014.7 |
| 20260504003116 | 11 | 169 | 0.0 | 0.0 | 0.00 | 0.00 | 0.00 | 50 | 1014.7 |
| 20260504002613 | 11 | 169 | 0.0 | 0.0 | 0.00 | 0.00 | 0.00 | 50 | 1014.8 |
| 20260504002111 | 11 | 169 | 0.0 | 0.0 | 0.00 | 0.00 | 0.00 | 50 | 1014.8 |
| 20260504001608 | 11 | 169 | 0.0 | 0.0 | 0.00 | 0.00 | 0.00 | 47 | 1014.8 |
| 20260504001104 | 12 | 169 | 0.0 | 0.0 | 0.00 | 0.00 | 0.00 | 48 | 1014.7 |
| 20260504000601 | 12 | 169 | 0.0 | 0.0 | 0.00 | 0.00 | 0.00 | 45 | 1014.6 |
| 20260504000059 | 12 | 169 | 0.0 | 0.0 | 0.00 | 0.00 | 0.00 | 45 | 1014.7 |
| 20260503235557 | 13 | 169 | 0.0 | 0.0 | 0.00 | 0.00 | 0.00 | 45 | 1014.7 |
| 20260503235053 | 13 | 169 | 0.0 | 0.0 | 0.00 | 0.00 | 0.00 | 43 | 1014.4 |
| 20260503234551 | 14 | 176 | 0.0 | 0.0 | 0.00 | 0.00 | 0.00 | 41 | 1014.3 |
| 20260503234049 | 14 | 178 | 0.0 | 0.0 | 0.00 | 0.00 | 0.00 | 38 | 1014.5 |
| 20260503233545 | 15 | 182 | 0.0 | 0.0 | 0.00 | 0.00 | 0.00 | 37 | 1014.4 |
| 20260503233041 | 15 | 200 | 3.2 | 3.2 | 0.00 | 0.00 | 0.00 | 34 | 1014.4 |
| 20260503232539 | 15 | 188 | 1.6 | 1.6 | 0.00 | 0.00 | 0.00 | 33 | 1014.4 |
| 20260503232036 | 15 | 169 | 1.6 | 1.6 | 0.00 | 0.00 | 0.00 | 32 | 1014.3 |
| 20260503231534 | 15 | 84 | 1.6 | 3.2 | 0.00 | 0.00 | 0.00 | 32 | 1014.1 |
| 20260503231030 | 15 | 17 | 3.2 | 8.0 | 0.00 | 0.00 | 0.00 | 33 | 1014.4 |
| 20260503230527 | 15 | 181 | 0.0 | 0.0 | 0.00 | 0.00 | 0.00 | 32 | 1014.2 |
| 20260503230024 | 16 | 170 | 1.6 | 1.6 | 0.00 | 0.00 | 0.00 | 34 | 1014.3 |
| 20260503225521 | 16 | 182 | 1.6 | 3.2 | 0.00 | 0.00 | 0.00 | 32 | 1014.2 |
| 20260503225016 | 16 | 208 | 1.6 | 3.2 | 0.00 | 0.00 | 0.00 | 32 | 1014.3 |
| 20260503224514 | 16 | 178 | 1.6 | 1.6 | 0.00 | 0.00 | 0.00 | 31 | 1014.3 |
| 20260503224011 | 17 | 185 | 1.6 | 1.6 | 0.00 | 0.00 | 0.00 | 31 | 1014.4 |
| 20260503223509 | 17 | 194 | 1.6 | 1.6 | 0.00 | 0.00 | 0.00 | 30 | 1014.2 |
| 20260503223005 | 17 | 229 | 3.2 | 4.8 | 0.00 | 0.00 | 0.00 | 30 | 1014.3 |
| 20260503222503 | 17 | 197 | 1.6 | 1.6 | 0.00 | 0.00 | 0.00 | 29 | 1014.2 |
| 20260503222001 | 17 | 257 | 4.8 | 4.8 | 0.00 | 0.00 | 0.00 | 33 | 1014.4 |
| 20260503221459 | 17 | 216 | 8.0 | 9.7 | 0.00 | 0.00 | 0.00 | 29 | 1014.4 |
| 20260503220956 | 17 | 302 | 8.0 | 9.7 | 0.00 | 0.00 | 0.00 | 30 | 1014.5 |
| 20260503220452 | 17 | 211 | 1.6 | 3.2 | 0.00 | 0.00 | 0.00 | 31 | 1014.5 |
| 20260503215949 | 17 | 192 | 8.0 | 9.7 | 0.00 | 0.00 | 0.00 | 30 | 1014.2 |
| 20260503215446 | 17 | 198 | 3.2 | 4.8 | 0.00 | 0.00 | 0.00 | 30 | 1014.4 |
| 20260503214943 | 17 | 226 | 6.4 | 9.7 | 0.00 | 0.00 | 0.00 | 30 | 1014.4 |
| 20260503214441 | 17 | 155 | 1.6 | 3.2 | 0.00 | 0.00 | 0.00 | 30 | 1014.4 |
| 20260503213938 | 17 | 161 | 3.2 | 3.2 | 0.00 | 0.00 | 0.00 | 29 | 1014.5 |
| 20260503213436 | 17 | 196 | 8.0 | 11.3 | 0.00 | 0.00 | 0.00 | 29 | 1014.5 |
| 20260503212932 | 17 | 227 | 4.8 | 4.8 | 0.00 | 0.00 | 0.00 | 31 | 1014.6 |
| 20260503212430 | 17 | 168 | 0.0 | 1.6 | 0.00 | 0.00 | 0.00 | 31 | 1014.5 |
| 20260503211927 | 17 | 212 | 1.6 | 3.2 | 0.00 | 0.00 | 0.00 | 32 | 1014.5 |
| 20260503211424 | 17 | 197 | 9.7 | 11.3 | 0.00 | 0.00 | 0.00 | 29 | 1014.6 |
| 20260503210919 | 17 | 226 | 6.4 | 9.7 | 0.00 | 0.00 | 0.00 | 29 | 1014.4 |
| 20260503210416 | 17 | 281 | 3.2 | 3.2 | 0.00 | 0.00 | 0.00 | 31 | 1014.4 |
| 20260503205911 | 17 | 169 | 0.0 | 1.6 | 0.00 | 0.00 | 0.00 | 31 | 1014.4 |
| 20260503205408 | 17 | 226 | 3.2 | 3.2 | 0.00 | 0.00 | 0.00 | 32 | 1014.7 |